Location: Amsterdam
(30.7274°N, 84.4357°W)
Time: 22:15:13
(UTC+00:00)

Courier 1B Rocket - Visible Passes

Search period start: 18 February 2026 00:00
Search period end: 28 February 2026 00:00
Orbit: 920 x 1201 km, 28.2° (Epoch: 18 February)

Date Brightness Start Highest point End Pass type
(mag) Time Alt. Az. Time Alt. Az. Time Alt. Az.
18 Feb 5.6 00:08:08 10° SW 00:13:57 42° SSE 00:18:58 14° E visible
18 Feb 5.6 02:00:49 10° WSW 02:05:20 48° WSW 02:05:20 48° WSW visible
19 Feb 5.0 00:59:45 10° WSW 01:05:54 63° S 01:07:58 42° ESE visible
19 Feb 7.2 02:52:52 10° W 02:54:20 18° W 02:54:20 18° W visible
19 Feb 5.3 23:58:44 10° WSW 00:04:46 53° SSE 00:10:36 11° E visible
20 Feb 5.2 01:51:45 10° W 01:56:58 60° SW 01:56:58 60° SW visible
21 Feb 4.9 00:50:37 10° WSW 00:56:48 70° S 00:59:35 35° ESE visible
21 Feb 6.9 02:43:52 10° W 02:45:57 22° W 02:45:57 22° W visible
21 Feb 5.2 23:49:29 10° WSW 23:55:39 63° S 00:01:52 10° E visible
22 Feb 5.0 01:42:42 10° W 01:48:34 68° SSW 01:48:34 68° SSW visible
23 Feb 4.9 00:41:32 10° W 00:47:44 72° S 00:51:12 28° ESE visible
23 Feb 6.7 02:34:53 10° W 02:37:33 26° W 02:37:33 26° W visible
24 Feb 5.0 01:33:41 10° W 01:39:49 63° S 01:40:12 61° S visible
25 Feb 5.0 00:32:27 10° W 00:38:40 69° S 00:42:52 22° ESE visible
25 Feb 6.5 02:25:58 10° W 02:29:12 29° WSW 02:29:12 29° WSW visible
26 Feb 5.3 01:24:40 10° W 01:30:42 52° SSW 01:31:54 46° SSE visible
27 Feb 5.2 00:23:23 10° W 00:29:35 62° S 00:34:38 16° ESE visible
27 Feb 6.4 02:17:11 10° W 02:21:00 28° SW 02:21:00 28° SW visible
